Change the Weather History Date:

Sunday, October 21, 2012

  Actual Average Record
Temperature  
Mean Temperature 82 °F -  
Max Temperature 88 °F 79 °F 93 °F (2004)
Min Temperature 76 °F 65 °F 64 °F (2005)
Cooling Degree Days 17    
Growing Degree Days 32 (Base 50)    
Moisture  
Dew Point 67 °F    
Average Humidity 61    
Maximum Humidity 89    
Minimum Humidity 29    
Precipitation  
Precipitation 0.00 in - - ()
Sea Level Pressure  
Sea Level Pressure 29.81 in    
Wind  
Wind Speed 5 mph ()    
Max Wind Speed 15 mph    
Max Gust Speed -    
Visibility 6.2 miles    
Events      
Averages and records for this station are not official NWS values.
T = Trace of Precipitation, MM = Missing Value Source: Averaged Metar Reports

Daily Weather History Graph

Daily Weather History Graph

Search for Another Location

Airport or City:

Trip Planner

Search our weather history database for the weather conditions in past years. The results will help you decide how hot, cold, wet, or windy it might be!

Date:

Astronomy

Oct. 21, 2012 Rise Set
Actual Time 5:48 AM EET 5:10 PM EET
Civil Twilight 5:24 AM EET 5:33 PM EET
Nautical Twilight 4:57 AM EET 6:01 PM EET
Astronomical Twilight 4:30 AM EET 6:28 PM EET
Moon 11:42 AM EET (10/21) 10:51 PM EET (10/21)
Length of Visible Light 12h 09m
Length of Day
11h 22m
Waxing Crescent, 42% of the Moon is Illuminated
Oct 21
Waxing Crescent
Oct 22
First Quarter
Oct 29
Full
Nov 7
Last Quarter
Nov 14
New

Hourly Weather History & Observations

Time (EET) Temp. Heat Index Dew Point Humidity Pressure Visibility Wind Dir Wind Speed Gust Speed Precip Events Conditions
12:00 AM 80.6 °F 83.2 °F 68.0 °F 65% 29.83 in - Calm Calm - N/A   Clear
1:00 AM 78.8 °F - 68.0 °F 69% 29.80 in - NW 6.9 mph - N/A   Clear
2:00 AM 77 °F - 66 °F 62% 29.79 in 6 mi Calm Calm - -   Scattered Clouds
2:00 AM 77.0 °F - 66.2 °F 69% 29.77 in - Calm Calm - N/A   Clear
3:00 AM 78.8 °F - 62.6 °F 57% 29.77 in - WNW 8.1 mph - N/A   Clear
4:00 AM 77.0 °F - 59.0 °F 54% 29.77 in - WNW 9.2 mph - N/A   Clear
5:00 AM 78.8 °F - 57.2 °F 47% 29.77 in 6.2 mi NNW 13.8 mph - N/A   Scattered Clouds
6:00 AM 77.0 °F - 57.2 °F 50% 29.83 in 6.2 mi WNW 8.1 mph - N/A   Scattered Clouds
7:00 AM 80.6 °F 80.3 °F 53.6 °F 39% 29.83 in 6.2 mi NW 12.7 mph - N/A   Scattered Clouds
8:00 AM 81 °F - 54 °F 29% 29.83 in 6 mi North 9.2 mph - -   Partly Cloudy
8:00 AM 80.6 °F 80.3 °F 53.6 °F 39% 29.83 in 6.2 mi North 9.2 mph - N/A   Scattered Clouds
9:00 AM 82.4 °F 83.9 °F 64.4 °F 54% 29.83 in 6.2 mi NW 15.0 mph - N/A   Scattered Clouds
10:00 AM 84.2 °F 85.0 °F 62.6 °F 48% 29.83 in 6.2 mi NNW 5.8 mph - N/A   Scattered Clouds
11:00 AM 86.0 °F 86.6 °F 62.6 °F 45% 29.83 in 6.2 mi North 6.9 mph - N/A   Scattered Clouds
12:00 PM 87.8 °F 88.5 °F 62.6 °F 43% 29.80 in 6.2 mi North 5.8 mph - N/A   Scattered Clouds
1:00 PM 87.8 °F 93.8 °F 71.6 °F 58% 29.77 in 6.2 mi East 5.8 mph - N/A   Scattered Clouds
2:00 PM 88 °F - 64 °F 35% 29.79 in 6 mi East 5.8 mph - -   Partly Cloudy
2:00 PM 87.8 °F 89.4 °F 64.4 °F 46% 29.77 in 6.2 mi East 5.8 mph - N/A   Scattered Clouds
3:00 PM 87.8 °F 97.6 °F 75.2 °F 66% 29.77 in 6.2 mi East 3.5 mph - N/A   Scattered Clouds
4:00 PM 86.0 °F 91.8 °F 71.6 °F 62% 29.77 in 6.2 mi ESE 5.8 mph - N/A   Scattered Clouds
5:00 PM 84.2 °F 90.9 °F 73.4 °F 70% 29.77 in 6.2 mi ESE 4.6 mph - N/A   Scattered Clouds
6:00 PM 82.4 °F 89.5 °F 75.2 °F 79% 29.80 in 6.2 mi Calm Calm - N/A   Partly Cloudy
7:00 PM 80.6 °F 86.2 °F 75.2 °F 84% 29.80 in 6.2 mi Calm Calm - N/A   Partly Cloudy
8:00 PM 80 °F - 76 °F 85% 29.83 in 6 mi Calm Calm - -   Scattered Clouds
8:00 PM 80.6 °F 87.1 °F 77.0 °F 89% 29.83 in 6.2 mi Calm Calm - N/A   Partly Cloudy
9:00 PM 78.8 °F - 75.2 °F 89% 29.86 in 6.2 mi NE 4.6 mph - N/A   Partly Cloudy
10:00 PM 80.6 °F 87.1 °F 77.0 °F 89% 29.86 in 6.2 mi ESE 4.6 mph - N/A   Scattered Clouds
11:00 PM 80.6 °F 86.2 °F 75.2 °F 84% 29.86 in 6.2 mi Calm Calm - N/A   Scattered Clouds